Location: Fauquembergues
(50.6005°N, 2.0987°E)
Time: 03:58:12
(UTC+00:00)

Cosmos 1741 Rocket - Pass Details

Date: 14 July 2020
Orbit: 761 x 783 km, 74.0° (Epoch: 06 August)

Event Time Altitude Azimuth Distance (km) Brightness Sun altitude
Exits shadow 03:04:19 - 198° (SSW) 2,679 6.3 -6.9°
Reaches altitude 10° 03:05:19 10° 197° (SSW) 2,289 5.9 -6.8°
Maximum altitude 03:10:30 79° 112° (ESE) 783 4.1 -6.2°
Drops below altitude 10° 03:15:45 10° 26° (NNE) 2,313 7.9 -5.6°
Sets 03:18:08 0° 26° (NNE) 3,246 8.8 -5.4°
